Zurück zum Katalog

STARLINK-32821

AktivKommunikationVLEO
NORAD 63078·PAYLOAD·🇺🇸 United States

Gestartet Feb 23, 2025 von Vandenberg Space Force Base

Loading…

Nächste Überflüge (nächste 24 Stunden)

TLE

AktuellSource: CelesTrak SupGP

Epoche: Sep 14, 2026, 22:29 UTC

1 63078C 25037B   26257.93729167  .00018165  00000+0  63182-3 0  2577
2 63078  70.0006 235.8147 0003185 267.5063 200.9791 15.29573486    14

Verfolge STARLINK-32821 in Echtzeit mit AllMySat

Download on the App Store